This demonstration page uses our WeatherBlox Daily Observations layout. Learn more.

Left ArrowRight Arrow

39.92423, -83.80882

Hourly Observations for January 4, 2019

Temp ( °F °C ) Dew Point ( °F °C ) Humidity (%) Winds ( mph kmh ) Pressure ( in mb ) Visibility ( mi km ) Precip ( " mm )
12:56 am 00:56 Clear 32 undefined 30 -1.1 92 92 SW 9 15 30.04 1017 9 14 N/A
1:56 am 01:56 Clear 32 undefined 30 -1.1 92 92 SSW 9 15 30.02 1017 8 13 N/A
3:56 am 03:56 Clear 31 -0.6 30 -1.1 96 96 N N/A 29.99 1016 7 11 N/A
4:56 am 04:56 Clear with Mist and Fog 29 -1.7 29 -1.7 100 100 N N/A 29.98 1015 5 8 N/A
5:56 am 05:56 Clear 32 undefined 31 -0.6 96 96 S 5 7 29.97 1015 7 11 N/A
6:56 am 06:56 Clear with Mist and Fog 29 -1.7 29 -1.7 100 100 ESE 3 6 29.95 1014 6 10 N/A
7:56 am 07:56 Clear with Mist and Fog 28 -2.2 28 -2.2 100 100 ENE 6 9 29.93 1013 4 6 N/A
8:56 am 08:56 Sunny with Mist and Fog 30 -1.1 30 -1.1 100 100 SSE 5 7 29.94 1014 4 6 N/A
9:56 am 09:56 Sunny with Mist and Fog 33 0.6 32 undefined 96 96 SE 6 9 29.93 1013 6 10 N/A
10:56 am 10:56 Sunny 37 2.8 34 1.1 89 89 ENE 6 9 29.90 1013 8 13 N/A
11:56 am 11:56 Sunny 42 5.6 32 undefined 68 68 SE 9 15 29.86 1011 10 16 N/A
12:56 pm 12:56 Sunny 44 6.7 34 1.1 68 68 E 8 13 29.80 1009 10 16 N/A
1:56 pm 13:56 Sunny 47 8.3 33 0.6 59 59 ENE 12 19 29.74 1007 10 16 N/A
2:56 pm 14:56 Sunny 48 8.9 31 -0.6 52 52 ENE 12 19 29.70 1006 10 16 N/A
3:56 pm 15:56 Sunny 46 7.8 33 0.6 61 61 E 10 17 29.69 1005 10 16 N/A
4:56 pm 16:56 Mostly Sunny 44 6.7 34 1.1 68 68 ENE 9 15 29.66 1004 10 16 N/A
5:56 pm 17:56 Cloudy with Light Rain 44 6.7 33 0.6 65 65 NNE 8 13 29.65 1004 10 16 N/A
6:56 pm 18:56 Cloudy with Rain 42 5.6 37 2.8 82 82 NNW 3 6 29.67 1005 10 16 0.02 0.51
7:56 pm 19:56 Cloudy with Rain 40 4.4 38 3.3 93 93 WSW 6 9 29.68 1005 10 16 0.14 3.56
8:56 pm 20:56 Cloudy with Rain 39 3.9 38 3.3 96 96 NNW 9 15 29.68 1005 10 16 0.11 2.79
9:56 pm 21:56 Cloudy with Light Rain 39 3.9 38 3.3 96 96 N 9 15 29.66 1004 7 11 0.21 5.33
10:56 pm 22:56 Cloudy with Light Rain 39 3.9 39 3.9 100 100 N 3 6 29.64 1004 10 16 0.12 3.05
11:56 pm 23:56 Cloudy with Mist and Fog 39 3.9 39 3.9 100 100 WSW 5 7 29.66 1004 6 10 N/A

Powered by AerisWeather